Location: Bakhuizen
(52.8696°N, 5.4575°E)
Time: 23:11:25
(UTC+00:00)

ATLAS 5 CENTAUR R/B - Pass Details

Date: 11 May 2021
Orbit: 512 x 1146 km, 63.3° (Epoch: 24 June)

Event Time Altitude Azimuth Distance (km) Brightness Sun altitude
Rises 20:38:06 0° 308° (NW) 3,237 7.3 -9.4°
Reaches altitude 10° 20:40:37 10° 298° (WNW) 2,409 5.9 -9.7°
Maximum altitude 20:45:24 30° 239° (WSW) 1,583 3.7 -10.2°
Drops below altitude 10° 20:50:53 10° 182° (S) 2,767 4.4 -10.7°
Enters shadow 20:52:04 - 178° (S) 3,155 4.7 -10.8°
